| time (UTC) | temp F | wind direction | speed knots | gust knots | rain 1hr in | rain 24hr in | rain mn in | humidity % | barometer mb |
| 20260510031532 | 48 | 164 | 1.7 | 3.5 | 0.00 | 0.00 | 0.00 | 88 | 1010.7 |
| 20260510030026 | 48 | 164 | 0.9 | 4.3 | 0.00 | 0.00 | 0.00 | 87 | 1010.7 |
| 20260510024525 | 49 | 165 | 0.9 | 2.6 | 0.00 | 0.00 | 0.00 | 87 | 1010.7 |
| 20260510023024 | 48 | 165 | 0.9 | 2.6 | 0.00 | 0.00 | 0.00 | 86 | 1010.6 |
| 20260510021532 | 49 | 165 | 1.7 | 3.5 | 0.00 | 0.00 | 0.00 | 86 | 1010.3 |
| 20260510020020 | 50 | 165 | 0.9 | 3.5 | 0.00 | 0.00 | 0.00 | 84 | 1010.3 |
| 20260510014519 | 51 | 165 | 1.7 | 3.5 | 0.00 | 0.00 | 0.00 | 83 | 1010.1 |
| 20260510013018 | 51 | 165 | 0.9 | 2.6 | 0.00 | 0.00 | 0.00 | 81 | 1009.9 |
| 20260510011516 | 53 | 165 | 0.0 | 0.9 | 0.00 | 0.00 | 0.00 | 78 | 1009.5 |
| 20260510010015 | 54 | 165 | 0.0 | 2.6 | 0.00 | 0.00 | 0.00 | 76 | 1009.1 |
| 20260510004517 | 56 | 159 | 0.0 | 1.7 | 0.00 | 0.00 | 0.00 | 72 | 1008.8 |
| 20260510003015 | 59 | 319 | 0.0 | 1.7 | 0.00 | 0.00 | 0.00 | 63 | 1008.6 |
| 20260510001514 | 61 | 326 | 0.0 | 1.7 | 0.00 | 0.00 | 0.00 | 58 | 1008.5 |
| 20260510000018 | 62 | 321 | 0.9 | 3.5 | 0.00 | 0.00 | 0.00 | 57 | 1008.5 |
| 20260509234514 | 63 | 303 | 0.0 | 3.5 | 0.00 | 0.00 | 0.00 | 56 | 1008.3 |
| 20260509233013 | 64 | 302 | 0.9 | 4.3 | 0.00 | 0.00 | 0.00 | 54 | 1008.2 |
| 20260509231513 | 64 | 302 | 1.7 | 4.3 | 0.00 | 0.00 | 0.00 | 53 | 1008.2 |
| 20260509230011 | 65 | 304 | 1.7 | 4.3 | 0.00 | 0.00 | 0.00 | 52 | 1008.4 |
| 20260509224511 | 66 | 315 | 0.9 | 3.5 | 0.00 | 0.00 | 0.00 | 50 | 1008.4 |
| 20260509223011 | 66 | 205 | 0.9 | 3.5 | 0.00 | 0.00 | 0.00 | 50 | 1008.6 |
| 20260509221511 | 64 | 5 | 0.9 | 4.3 | 0.00 | 0.00 | 0.00 | 53 | 1008.7 |
| 20260509220011 | 64 | 315 | 1.7 | 4.3 | 0.00 | 0.00 | 0.00 | 53 | 1008.8 |
| 20260509214510 | 64 | 304 | 1.7 | 5.2 | 0.00 | 0.00 | 0.00 | 53 | 1008.6 |
| 20260509213009 | 64 | 275 | 1.7 | 7.8 | 0.00 | 0.00 | 0.00 | 51 | 1008.5 |
| 20260509211513 | 65 | 330 | 0.9 | 3.5 | 0.00 | 0.00 | 0.00 | 50 | 1008.2 |
| 20260509210011 | 67 | 322 | 1.7 | 6.1 | 0.00 | 0.00 | 0.00 | 48 | 1008.0 |
| 20260509204507 | 66 | 295 | 1.7 | 4.3 | 0.00 | 0.00 | 0.00 | 50 | 1008.0 |
| 20260509203006 | 66 | 303 | 1.7 | 6.1 | 0.00 | 0.00 | 0.00 | 49 | 1007.8 |
| 20260509201506 | 66 | 347 | 1.7 | 7.0 | 0.00 | 0.00 | 0.00 | 49 | 1007.9 |
| 20260509200005 | 66 | 355 | 1.7 | 7.8 | 0.00 | 0.00 | 0.00 | 47 | 1007.7 |
| 20260509194505 | 66 | 277 | 0.9 | 7.0 | 0.00 | 0.00 | 0.00 | 46 | 1007.8 |
| 20260509193010 | 67 | 326 | 1.7 | 7.0 | 0.00 | 0.00 | 0.00 | 42 | 1007.8 |
| 20260509191604 | 65 | 332 | 1.7 | 4.3 | 0.00 | 0.00 | 0.00 | 50 | 1007.8 |
| 20260509190109 | 65 | 338 | 1.7 | 5.2 | 0.00 | 0.00 | 0.00 | 50 | 1007.8 |
| 20260509184558 | 65 | 267 | 0.0 | 2.6 | 0.00 | 0.00 | 0.00 | 49 | 1007.8 |
| 20260509183055 | 65 | 123 | 0.9 | 7.0 | 0.00 | 0.00 | 0.00 | 51 | 1007.9 |
| 20260509181559 | 64 | 142 | 2.6 | 9.6 | 0.00 | 0.00 | 0.00 | 52 | 1007.8 |
| 20260509180058 | 63 | 103 | 6.1 | 10.4 | 0.00 | 0.00 | 0.00 | 52 | 1007.9 |
| 20260509174550 | 64 | 300 | 1.7 | 9.6 | 0.00 | 0.00 | 0.00 | 54 | 1008.1 |
| 20260509173049 | 63 | 161 | 4.3 | 8.7 | 0.00 | 0.00 | 0.00 | 55 | 1008.1 |
| 20260509171547 | 63 | 126 | 3.5 | 13.9 | 0.00 | 0.00 | 0.00 | 56 | 1008.4 |
| 20260509170042 | 61 | 184 | 2.6 | 7.8 | 0.00 | 0.00 | 0.00 | 58 | 1008.6 |
| 20260509164548 | 61 | 144 | 2.6 | 6.1 | 0.00 | 0.00 | 0.00 | 58 | 1008.7 |
| 20260509163038 | 60 | 164 | 0.0 | 2.6 | 0.00 | 0.00 | 0.00 | 57 | 1008.8 |
| 20260509161538 | 60 | 267 | 0.0 | 0.9 | 0.00 | 0.00 | 0.00 | 56 | 1008.8 |
| 20260509160035 | 59 | 171 | 0.0 | 4.3 | 0.00 | 0.00 | 0.00 | 57 | 1008.8 |
| 20260509154533 | 59 | 338 | 0.0 | 1.7 | 0.00 | 0.00 | 0.00 | 59 | 1008.9 |
| 20260509153032 | 59 | 338 | 0.9 | 3.5 | 0.00 | 0.00 | 0.00 | 57 | 1009.3 |
| 20260509151536 | 59 | 341 | 0.0 | 3.5 | 0.00 | 0.00 | 0.00 | 58 | 1009.4 |
| 20260509150036 | 59 | 341 | 0.9 | 2.6 | 0.00 | 0.00 | 0.00 | 57 | 1009.5 |
| 20260509144534 | 59 | 315 | 0.9 | 2.6 | 0.00 | 0.00 | 0.00 | 57 | 1009.2 |
| 20260509143031 | 59 | 280 | 0.9 | 2.6 | 0.00 | 0.00 | 0.00 | 55 | 1009.0 |
| 20260509141525 | 57 | 331 | 0.9 | 2.6 | 0.00 | 0.00 | 0.00 | 60 | 1009.0 |
| 20260509140022 | 57 | 331 | 0.9 | 3.5 | 0.00 | 0.00 | 0.00 | 61 | 1008.8 |
| 20260509134519 | 56 | 319 | 0.9 | 2.6 | 0.00 | 0.00 | 0.00 | 65 | 1008.9 |
| 20260509133017 | 55 | 336 | 0.9 | 2.6 | 0.00 | 0.00 | 0.00 | 66 | 1009.3 |
| 20260509131514 | 55 | 314 | 0.9 | 1.7 | 0.00 | 0.00 | 0.00 | 67 | 1009.4 |
| 20260509130015 | 53 | 210 | 0.0 | 2.6 | 0.00 | 0.00 | 0.00 | 69 | 1009.3 |
| 20260509124508 | 52 | 210 | 0.0 | 0.9 | 0.00 | 0.00 | 0.00 | 73 | 1009.4 |
| 20260509123101 | 51 | 210 | 0.0 | 1.7 | 0.00 | 0.00 | 0.00 | 73 | 1009.4 |
| 20260509121558 | 0 | 0.0 | 0.0 | 0.00 | 0.00 | 0.00 | 1009.6 | ||
| 20260509120055 | 0 | 0.0 | 0.0 | 0.00 | 0.00 | 0.00 | 1009.7 | ||
| 20260509114551 | 0 | 0.0 | 0.0 | 0.00 | 0.00 | 0.00 | 1009.9 | ||
| 20260509113050 | 0 | 0.0 | 0.0 | 0.00 | 0.00 | 0.00 | 1009.9 | ||
| 20260509111540 | 0 | 0.0 | 0.0 | 0.00 | 0.00 | 0.00 | 1009.8 | ||
| 20260509110037 | 0 | 0.0 | 0.0 | 0.00 | 0.00 | 0.00 | 1009.9 | ||
| 20260509104532 | 0 | 0.0 | 0.0 | 0.00 | 0.00 | 0.00 | 1009.8 | ||
| 20260509103027 | 0 | 0.0 | 0.0 | 0.00 | 0.00 | 0.00 | 1009.8 | ||
| 20260509101534 | 0 | 0.0 | 0.0 | 0.00 | 0.00 | 0.00 | 1009.8 | ||
| 20260509100023 | 0 | 0.0 | 0.0 | 0.00 | 0.00 | 0.00 | 1009.6 | ||
| 20260509094519 | 0 | 0.0 | 0.0 | 0.00 | 0.00 | 0.00 | 1009.6 | ||
| 20260509093011 | 0 | 0.0 | 0.0 | 0.00 | 0.00 | 0.00 | 1009.7 | ||
| 20260509091506 | 0 | 0.0 | 0.0 | 0.00 | 0.00 | 0.00 | 1009.8 | ||
| 20260509090002 | 0 | 0.0 | 0.0 | 0.00 | 0.00 | 0.00 | 1010.0 | ||
| 20260509084600 | 0 | 0.0 | 0.0 | 0.00 | 0.00 | 0.00 | 1010.1 | ||
| 20260509083053 | 0 | 0.0 | 0.0 | 0.00 | 0.00 | 0.00 | 1010.2 | ||
| 20260509081550 | 0 | 0.0 | 0.0 | 0.00 | 0.00 | 0.00 | 1010.3 | ||
| 20260509080044 | 0 | 0.0 | 0.0 | 0.00 | 0.00 | 0.00 | 1010.4 | ||
| 20260509074551 | 0 | 0.0 | 0.0 | 0.00 | 0.00 | 0.00 | 1010.3 | ||
| 20260509073036 | 0 | 0.0 | 0.0 | 0.00 | 0.00 | 0.00 | 1010.4 | ||
| 20260509071530 | 0 | 0.0 | 0.0 | 0.00 | 0.00 | 0.00 | 1010.4 | ||
| 20260509070027 | 0 | 0.0 | 0.0 | 0.00 | 0.00 | 0.00 | 1010.7 | ||
| 20260509064522 | 0 | 0.0 | 0.0 | 0.00 | 0.00 | 0.00 | 1010.6 | ||
| 20260509063018 | 0 | 0.0 | 0.0 | 0.00 | 0.00 | 0.00 | 1010.7 | ||
| 20260509061515 | 50 | 155 | 0.9 | 3.5 | 0.00 | 0.00 | 0.00 | 74 | 1010.9 |
| 20260509060012 | 50 | 155 | 0.9 | 4.3 | 0.00 | 0.00 | 0.00 | 73 | 1011.1 |
| 20260509054509 | 51 | 155 | 1.7 | 4.3 | 0.00 | 0.00 | 0.00 | 69 | 1011.2 |
| 20260509053008 | 51 | 155 | 0.9 | 4.3 | 0.00 | 0.00 | 0.00 | 65 | 1011.2 |
| 20260509051506 | 51 | 167 | 1.7 | 3.5 | 0.00 | 0.00 | 0.00 | 67 | 1011.5 |
| 20260509050004 | 51 | 165 | 0.9 | 3.5 | 0.00 | 0.00 | 0.00 | 68 | 1011.5 |
| 20260509044504 | 51 | 169 | 2.6 | 3.5 | 0.00 | 0.00 | 0.00 | 69 | 1011.6 |
| 20260509043001 | 51 | 171 | 2.6 | 3.5 | 0.00 | 0.00 | 0.00 | 68 | 1011.5 |
| 20260509041600 | 51 | 161 | 2.6 | 5.2 | 0.00 | 0.00 | 0.00 | 67 | 1011.7 |
| 20260509040058 | 52 | 163 | 2.6 | 4.3 | 0.00 | 0.00 | 0.00 | 69 | 1011.8 |
| 20260509034558 | 51 | 152 | 2.6 | 5.2 | 0.00 | 0.00 | 0.00 | 69 | 1011.9 |
| 20260509033059 | 51 | 170 | 0.0 | 0.0 | 0.00 | 0.00 | 0.00 | 73 | 1011.9 |